This is the latest recevied weather packets stored in our database for station/object K9YK-13. If no packets are shown the sender has not sent any weather packets the latest 10 day(s).
| Time | Temp. | Humidity | Pressure | Rain* | Wind** | Luminosity | Snow |
|---|---|---|---|---|---|---|---|
| 1777832471 | 16.11° C | 55% | 0 hPa | 0 mm | - | - | - |
| 1777832171 | 17.22° C | 56% | 0 hPa | 0 mm | - | - | - |
| 1777831571 | 17.22° C | 55% | 0 hPa | 0 mm | - | - | - |
| 1777831271 | 17.22° C | 56% | 0 hPa | 0 mm | - | - | - |
| 1777830971 | 16.67° C | 54% | 0 hPa | 0 mm | - | - | - |
| 1777830071 | 16.11° C | 54% | 0 hPa | 0 mm | - | - | - |
| 1777829771 | 16.11° C | 55% | 0 hPa | 0 mm | - | - | - |
| 1777829171 | 16.67° C | 56% | 0 hPa | 0 mm | - | - | - |
| 1777828871 | 16.67° C | 56% | 0 hPa | 0 mm | - | - | - |
| 1777828571 | 15.56° C | 56% | 0 hPa | 0 mm | - | - | - |
| 1777827971 | 15.56° C | 56% | 0 hPa | 0 mm | - | - | - |
| 1777827671 | 16.11° C | 57% | 0 hPa | 0 mm | - | - | - |
| 1777827371 | 15.56° C | 58% | 0 hPa | 0 mm | - | - | - |
| 1777827071 | 15.56° C | 58% | 0 hPa | 0 mm | - | - | - |
| 1777826771 | 15° C | 59% | 0 hPa | 0 mm | - | - | - |
| 1777826171 | 15° C | 59% | 0 hPa | 0 mm | - | - | - |
| 1777825871 | 15.56° C | 59% | 0 hPa | 0 mm | - | - | - |
| 1777825571 | 15° C | 59% | 0 hPa | 0 mm | - | - | - |
| 1777825271 | 15° C | 61% | 0 hPa | 0 mm | - | - | - |
| 1777824971 | 15° C | 61% | 0 hPa | 0 mm | - | - | - |
| 1777824671 | 15.56° C | 60% | 0 hPa | 0 mm | - | - | - |
| 1777824371 | 15.56° C | 57% | 0 hPa | 0 mm | - | - | - |
| 1777824071 | 15° C | 60% | 0 hPa | 0 mm | - | - | - |
| 1777823771 | 16.67° C | 60% | 0 hPa | 0 mm | - | - | - |
| 1777823471 | 16.67° C | 59% | 0 hPa | 0 mm | - | - | - |
* Rain latest hour (hover to see other rain measurements)
** Current wind speed in m/s (hover to see current wind gust speed)